#timestamp,LO_Frequency,Hit,StdDev 
1635832815.1,286046998.2,N
1635832835.9,286046996.9,N
1635832855.7,286046995.2,N
1635832875.6,286046995.4,N
1635832895.4,286046993.3,N
1635832915.2,286046995.1,N
1635832935.1,286046996.4,N
1635832936.0,286046996.4,N
1635832955.8,286046996.4,N
1635832975.6,286046996.0,N
1635832995.5,286046994.1,N
1635833015.3,286046993.4,N
1635833035.2,286046993.3,N
1635833055.9,286046993.6,N
1635833075.7,286046993.6,N
1635833095.6,286046996.3,N
1635833115.4,286046993.8,N
1635833135.2,286046995.7,N
1635833155.1,286046995.0,N
1635833156.0,286046995.0,N
1635833175.8,286046996.1,N
1635833195.7,286046995.5,N
1635833215.5,286046997.5,N
1635833235.3,286046999.6,N
1635833255.2,286046999.4,N
1635833275.0,286046999.1,N
1635833275.9,286046999.1,N
1635833295.7,286047001.0,N
1635833315.6,286046998.5,N
1635833335.4,286046998.3,N
1635833355.3,286047001.1,N
1635833375.1,286046998.2,N
1635833376.0,286046998.2,N
1635833395.8,286047002.8,N
1635833415.7,286046998.5,N
1635833435.5,286046998.2,N
1635833455.3,286046998.7,N
1635833475.2,286046999.0,N
1635833495.0,286046998.7,N
1635833495.9,286046998.7,N
1635833515.8,286046998.3,N
1635833535.6,286046999.2,N
1635833555.4,286046998.6,N
1635833575.3,286046997.1,N
1635833595.1,286046997.4,N
1635833615.8,286046995.0,N
1635833635.7,286046995.2,N
1635833655.5,286046994.4,Y
1635833675.4,286046994.1,P
1635833695.2,286046993.7,P
1635833715.0,286046993.8,P
1635833715.9,286046993.8,Y
1635833735.8,286047000.1,P
1635833755.6,286047001.1,N
1635833775.5,286047000.8,N
1635833795.3,286047001.0,N
1635833815.1,286047000.1,N
1635833835.9,286046999.7,N
1635833855.7,286047001.6,N
1635833875.5,286047001.5,N
1635833895.4,286047001.9,N
1635833915.2,286047002.6,N
1635833935.1,286046999.7,N
1635833936.0,286046999.7,N
1635833955.8,286046999.9,N
1635833975.6,286047000.0,N
1635833995.5,286047002.3,N
1635834015.3,286047001.7,N
1635834035.1,286047001.5,N
1635834055.9,286047003.6,N
1635834075.7,286047003.3,N
1635834095.6,286047003.8,N
1635834115.4,286047003.1,N
1635834135.2,286047003.8,N
1635834155.1,286047006.0,Y
1635834156.0,286047006.0,P
1635834175.8,286047011.9,P
1635834195.7,286047003.6,N
1635834215.5,286047003.4,N
1635834235.3,286047002.9,N
1635834255.2,286047003.9,N
1635834275.0,286047003.5,N
1635834275.9,286047003.5,N
1635834295.7,286047003.4,N
1635834315.6,286047003.1,N
1635834335.4,286047003.6,N
1635834355.3,286047002.9,N
1635834375.1,286047002.9,N
1635834376.0,286047002.9,N
1635834395.8,286047006.0,N
1635834415.7,286047006.0,N
1635834435.5,286047004.2,N
1635834455.3,286047003.1,N
1635834475.2,286047005.3,N
1635834495.0,286047005.2,N
1635834495.9,286047005.2,N
1635834515.8,286047007.6,Y
1635834535.6,286047004.4,P
1635834555.4,286047003.4,P
1635834575.3,286047005.7,P
1635834595.1,286047003.3,Y
1635834615.9,286046999.2,P
1635834635.7,286047001.0,N
1635834655.5,286047002.2,N
1635834675.4,286047003.2,N
1635834695.2,286047004.3,N
1635834715.1,286047001.4,N
1635834716.0,286047001.4,N
1635834735.8,286047003.9,N
1635834755.6,286047002.6,N
1635834775.5,286047001.2,N
1635834795.3,286047001.1,N
1635834815.1,286046998.3,N
1635834835.9,286046998.7,N
1635834855.7,286046998.5,N
1635834875.6,286046998.9,N
1635834895.4,286047000.9,N
1635834915.2,286046999.8,N
1635834935.1,286047000.9,N
1635834936.0,286047000.9,N
1635834955.8,286047002.5,N
1635834975.6,286047002.6,N
1635834995.5,286047002.3,N
1635835015.3,286047001.6,N
1635835035.2,286047003.1,N
1635835055.9,286047003.1,N
1635835075.7,286047004.4,N
1635835095.6,286047001.9,N
1635835115.4,286047001.6,N
1635835135.2,286047001.6,N
1635835155.1,286047004.0,N
1635835156.0,286047004.0,N
1635835175.8,286047001.5,N
1635835195.7,286047001.4,N
1635835215.5,286047002.1,N
1635835235.3,286047000.3,N
1635835255.2,286047002.1,N
1635835275.0,286047002.5,N
1635835275.9,286047002.5,N
1635835295.7,286047004.1,N
1635835315.6,286047001.9,N
1635835335.4,286047001.4,N
1635835355.3,286047002.8,N
1635835375.1,286046999.8,N
1635835395.8,286047002.8,N
1635835415.7,286046999.8,N
1635835435.5,286046998.3,N
1635835455.4,286047001.1,N
1635835475.2,286047000.1,N
1635835495.0,286047001.5,N
1635835495.9,286047001.5,N
1635835515.8,286047001.7,N
1635835535.6,286046999.8,N
1635835555.4,286047002.5,N
1635835575.3,286047000.1,N
1635835595.1,286047000.7,N
1635835615.9,286047002.6,N
1635835635.7,286047000.5,N
1635835655.5,286046998.1,N
1635835675.4,286047000.4,N
1635835695.2,286047000.4,N
1635835715.0,286046999.8,N
1635835715.9,286046999.8,N
1635835735.8,286047002.7,N
1635835755.6,286047002.5,N
1635835775.5,286047002.4,N
1635835795.3,286047002.3,N
1635835815.1,286047004.2,N
1635835835.9,286047002.2,N
1635835855.7,286047002.3,N
1635835875.5,286047001.2,N
1635835895.4,286047000.6,N
1635835915.2,286047001.9,N
1635835935.1,286047002.4,N
1635835936.0,286047002.4,N
1635835955.8,286047000.7,N
1635835975.6,286046999.8,N
1635835995.5,286047002.6,N
1635836015.3,286047002.5,N
1635836035.2,286047003.3,N
1635836055.9,286047003.1,N
1635836075.7,286047003.6,N
1635836095.6,286047007.3,Y
1635836115.4,286047005.3,P
1635836135.2,286047003.1,N
1635836155.1,286047003.8,N
1635836156.0,286047003.8,N
1635836175.8,286047003.2,N
1635836195.7,286047006.0,Y
1635836215.5,286046998.1,P
1635836235.3,286046998.1,N
1635836255.2,286047000.9,N
1635836275.0,286047000.9,N
1635836275.9,286047000.9,N
1635836295.7,286046998.6,N
1635836315.6,286047001.0,N
1635836335.4,286047000.4,N
1635836355.3,286047001.2,N
1635836375.1,286046999.2,N
1635836395.8,286046998.4,N
